Lakeville, MN

4:19 PM CDT on May 24, 2017 (GMT -0500)
Airlake

Weather History for KLVN - December, 2012

Change the Weather History Date:

Wednesday, December 26, 2012

  Actual Average Record
Temperature  
Mean Temperature 6 °F -  
Max Temperature 15 °F 21 °F 48 °F (2011)
Min Temperature -2 °F 4 °F -25 °F (1996)
Degree Days  
Heating Degree Days 58    
Moisture  
Dew Point 0 °F    
Average Humidity 77    
Maximum Humidity 92    
Minimum Humidity 58    
Precipitation  
Precipitation 0.00 in - - ()
Sea Level Pressure  
Sea Level Pressure 30.29 in    
Wind  
Wind Speed 2 mph (North)    
Max Wind Speed 6 mph    
Max Gust Speed -    
Visibility 10 miles    
Events      
Averages and records for this station are not official NWS values.
T = Trace of Precipitation, MM = Missing Value Source: NWS Daily Summary

Daily Weather History Graph

Daily Weather History Graph

Search for Another Location

Airport or City:

Trip Planner

Search our weather history database for the weather conditions in past years. The results will help you decide how hot, cold, wet, or windy it might be!

Date:

Astronomy

Dec. 26, 2012 Rise Set
Actual Time 7:48 AM CST 4:38 PM CST
Civil Twilight 7:15 AM CST 5:12 PM CST
Nautical Twilight 6:38 AM CST 5:49 PM CST
Astronomical Twilight 6:02 AM CST 6:24 PM CST
Moon 3:33 PM CST (12/26) 6:11 AM CST (12/26)
Length of Visible Light 9h 56m
Length of Day
8h 49m
Waxing Gibbous, 97% of the Moon is Illuminated
Dec 26
Waxing Gibbous
Dec 28
Full
Jan 4
Last Quarter
Jan 11
New
Jan 18
First Quarter

Hourly Weather History & Observations

Time (CST) Temp. Windchill Dew Point Humidity Pressure Visibility Wind Dir Wind Speed Gust Speed Precip Events Conditions
12:11 AM -2.2 °F -10.4 °F -5.8 °F 85% 30.38 in 10.0 mi NW 3.5 mph - N/A   Clear
12:31 AM -2.2 °F -12.5 °F -5.8 °F 85% 30.38 in 10.0 mi NW 4.6 mph - N/A   Clear
12:51 AM -2.2 °F -12.5 °F -5.8 °F 85% 30.37 in 10.0 mi West 4.6 mph - N/A   Clear
1:11 AM -0.4 °F - -4.0 °F 85% 30.38 in 10.0 mi Calm Calm - N/A   Clear
1:31 AM -0.4 °F - -4.0 °F 85% 30.38 in 10.0 mi Calm Calm - N/A   Clear
1:51 AM -2.2 °F - -7.6 °F 78% 30.37 in 10.0 mi Calm Calm - N/A   Clear
2:11 AM -0.4 °F -8.3 °F -4.0 °F 85% 30.38 in 10.0 mi NW 3.5 mph - N/A   Clear
2:31 AM -0.4 °F - -4.0 °F 85% 30.38 in 10.0 mi Calm Calm - N/A   Clear
2:51 AM -0.4 °F - -4.0 °F 85% 30.37 in 10.0 mi Calm Calm - N/A   Clear
3:11 AM -0.4 °F - -2.2 °F 92% 30.36 in 10.0 mi Calm Calm - N/A   Clear
3:31 AM 1.4 °F - -2.2 °F 85% 30.36 in 10.0 mi Calm Calm - N/A   Clear
3:51 AM 1.4 °F -6.2 °F -0.4 °F 92% 30.35 in 10.0 mi NNE 3.5 mph - N/A   Clear
4:11 AM 3.2 °F -4.2 °F -0.4 °F 85% 30.35 in 10.0 mi North 3.5 mph - N/A   Clear
4:31 AM 3.2 °F - -0.4 °F 85% 30.35 in 10.0 mi Calm Calm - N/A   Clear
4:51 AM 3.2 °F - -0.4 °F 85% 30.34 in 10.0 mi Calm Calm - N/A   Clear
5:11 AM 3.2 °F - -0.4 °F 85% 30.34 in 10.0 mi Calm Calm - N/A   Clear
5:31 AM 3.2 °F - -0.4 °F 85% 30.33 in 10.0 mi Calm Calm - N/A   Clear
5:51 AM 5.0 °F - -0.4 °F 78% 30.33 in 10.0 mi Calm Calm - N/A   Clear
6:11 AM 5.0 °F -2.1 °F -0.4 °F 78% 30.32 in 10.0 mi NNE 3.5 mph - N/A   Scattered Clouds
6:31 AM 5.0 °F -4.1 °F -0.4 °F 78% 30.32 in 10.0 mi North 4.6 mph - N/A   Scattered Clouds
6:51 AM 5.0 °F -4.1 °F -0.4 °F 78% 30.31 in 10.0 mi North 4.6 mph - N/A   Scattered Clouds
7:11 AM 5.0 °F -4.1 °F -0.4 °F 78% 30.31 in 10.0 mi NNE 4.6 mph - N/A   Clear
7:31 AM 5.0 °F -4.1 °F -0.4 °F 78% 30.31 in 10.0 mi NNE 4.6 mph - N/A   Clear
7:51 AM 6.8 °F -2.0 °F 1.4 °F 79% 30.31 in 10.0 mi NNE 4.6 mph - N/A   Scattered Clouds
8:11 AM 6.8 °F -2.0 °F -0.4 °F 72% 30.30 in 10.0 mi NNE 4.6 mph - N/A   Scattered Clouds
8:31 AM 6.8 °F -2.0 °F -0.4 °F 72% 30.31 in 10.0 mi North 4.6 mph - N/A   Clear
8:51 AM 6.8 °F -2.0 °F 1.4 °F 79% 30.31 in 10.0 mi NNW 4.6 mph - N/A   Clear
9:11 AM 6.8 °F -2.0 °F 1.4 °F 79% 30.31 in 10.0 mi NNW 4.6 mph - N/A   Clear
9:31 AM 6.8 °F -2.0 °F 1.4 °F 79% 30.31 in 10.0 mi North 4.6 mph - N/A   Clear
9:51 AM 6.8 °F -3.5 °F 1.4 °F 79% 30.31 in 10.0 mi NNW 5.8 mph - N/A   Clear
10:10 AM 8.6 °F 0.1 °F 1.4 °F 73% 30.31 in 10.0 mi North 4.6 mph - N/A   Clear
10:31 AM 8.6 °F 0.1 °F 1.4 °F 73% 30.31 in 10.0 mi NNE 4.6 mph - N/A   Clear
10:51 AM 8.6 °F 2.0 °F 1.4 °F 73% 30.31 in 10.0 mi NNE 3.5 mph - N/A   Clear
11:10 AM 10.4 °F 2.2 °F 1.4 °F 67% 30.31 in 10.0 mi NE 4.6 mph - N/A   Clear
11:31 AM 10.4 °F - 1.4 °F 67% 30.30 in 10.0 mi Calm Calm - N/A   Clear
11:51 AM 10.4 °F 2.2 °F 1.4 °F 67% 30.29 in 10.0 mi North 4.6 mph - N/A   Clear
12:31 PM 12.2 °F - 3.2 °F 67% 30.28 in 10.0 mi Calm Calm - N/A   Clear
12:51 PM 12.2 °F 6.1 °F 3.2 °F 67% 30.27 in 10.0 mi East 3.5 mph - N/A   Scattered Clouds
1:10 PM 12.2 °F - 3.2 °F 67% 30.27 in 10.0 mi Calm Calm - N/A   Scattered Clouds
1:31 PM 12.2 °F - 3.2 °F 67% 30.26 in 10.0 mi Calm Calm - N/A   Clear
1:51 PM 14.0 °F - 3.2 °F 62% 30.26 in 10.0 mi Calm Calm - N/A   Clear
2:10 PM 14.0 °F 8.2 °F 3.2 °F 62% 30.25 in 10.0 mi ENE 3.5 mph - N/A   Clear
2:31 PM 15.8 °F 8.6 °F 3.2 °F 58% 30.26 in 10.0 mi NE 4.6 mph - N/A   Clear
2:51 PM 15.8 °F 10.2 °F 3.2 °F 58% 30.26 in 10.0 mi NNE 3.5 mph - N/A   Clear
3:11 PM 15.8 °F - 3.2 °F 58% 30.26 in 10.0 mi Calm Calm - N/A   Clear
3:31 PM 15.8 °F 10.2 °F 3.2 °F 58% 30.25 in 10.0 mi NE 3.5 mph - N/A   Clear
3:51 PM 14.0 °F - 3.2 °F 62% 30.25 in 10.0 mi Calm Calm - N/A   Clear
4:11 PM 14.0 °F - 3.2 °F 62% 30.25 in 10.0 mi Calm Calm - N/A   Clear
4:31 PM 12.2 °F - 3.2 °F 67% 30.25 in 10.0 mi Calm Calm - N/A   Clear
4:51 PM 12.2 °F - 3.2 °F 67% 30.25 in 10.0 mi Calm Calm - N/A   Clear
5:11 PM 10.4 °F - 3.2 °F 73% 30.25 in 10.0 mi Calm Calm - N/A   Clear
5:31 PM 10.4 °F - 1.4 °F 67% 30.25 in 10.0 mi Calm Calm - N/A   Clear
5:51 PM 10.4 °F - 1.4 °F 67% 30.25 in 10.0 mi Calm Calm - N/A   Clear
6:11 PM 5.0 °F - -0.4 °F 78% 30.25 in 10.0 mi Calm Calm - N/A   Clear
6:31 PM 3.2 °F - -0.4 °F 85% 30.25 in 10.0 mi Calm Calm - N/A   Clear
6:51 PM -0.4 °F - -4.0 °F 85% 30.26 in 10.0 mi Calm Calm - N/A   Clear
7:11 PM 1.4 °F - -4.0 °F 78% 30.26 in 10.0 mi Calm Calm - N/A   Clear
7:31 PM -0.4 °F - -2.2 °F 92% 30.26 in 10.0 mi Calm Calm - N/A   Clear
7:51 PM 5.0 °F - -0.4 °F 78% 30.25 in 10.0 mi Calm Calm - N/A   Clear
8:11 PM 1.4 °F - -2.2 °F 85% 30.25 in 10.0 mi Calm Calm - N/A   Clear
8:31 PM 1.4 °F - -0.4 °F 92% 30.25 in 10.0 mi Calm Calm - N/A   Scattered Clouds
8:51 PM 1.4 °F - -2.2 °F 85% 30.24 in 10.0 mi Calm Calm - N/A   Mostly Cloudy
9:11 PM 5.0 °F - 1.4 °F 85% 30.25 in 10.0 mi Calm Calm - N/A   Overcast
9:31 PM 6.8 °F - 1.4 °F 79% 30.25 in 10.0 mi Calm Calm - N/A   Overcast
9:51 PM 1.4 °F - -2.2 °F 85% 30.23 in 10.0 mi Calm Calm - N/A   Overcast
10:11 PM 6.8 °F - 1.4 °F 79% 30.24 in 10.0 mi Calm Calm - N/A   Overcast
10:31 PM 5.0 °F - 1.4 °F 85% 30.23 in 10.0 mi Calm Calm - N/A   Overcast
10:51 PM 6.8 °F - 1.4 °F 79% 30.23 in 10.0 mi Calm Calm - N/A   Scattered Clouds
11:11 PM 6.8 °F - 1.4 °F 79% 30.23 in 10.0 mi Calm Calm - N/A   Clear
11:31 PM 5.0 °F - 1.4 °F 85% 30.22 in 10.0 mi Calm Calm - N/A   Clear
11:51 PM 3.2 °F - -0.4 °F 85% 30.22 in 10.0 mi Calm Calm - N/A   Clear